This is the latest recevied weather packets stored in our database for station/object AI5BL. If no packets are shown the sender has not sent any weather packets the latest 10 day(s).
| Time | Temp. | Humidity | Pressure | Rain* | Wind** | Luminosity | Snow |
|---|---|---|---|---|---|---|---|
| 1787863303 | 26.67° C | 84% | 1016.9 hPa | 0 mm | - | 144 W/m² | - |
| 1787862999 | 27.22° C | 81% | 1016.9 hPa | 0 mm | - | 161 W/m² | - |
| 1787862693 | 27.22° C | 86% | 1016.9 hPa | 0 mm | - | 155 W/m² | - |
| 1787862389 | 27.22° C | 85% | 1017.1 hPa | 0 mm | - | 149 W/m² | - |
| 1787862084 | 27.22° C | 86% | 1017 hPa | 0 mm | - | 152 W/m² | - |
| 1787861783 | 27.22° C | 86% | 1017 hPa | 0 mm | - | 151 W/m² | - |
| 1787861476 | 27.22° C | 86% | 1017 hPa | 0 mm | - | 150 W/m² | - |
| 1787861171 | 27.22° C | 87% | 1017.3 hPa | 0 mm | - | 134 W/m² | - |
| 1787860870 | 26.67° C | 90% | 1017.3 hPa | 0 mm | - | 131 W/m² | - |
| 1787860564 | 26.67° C | 89% | 1017.4 hPa | 0 mm | - | 125 W/m² | - |
| 1787860260 | 26.67° C | 88% | 1017.4 hPa | 0 mm | - | 129 W/m² | - |
| 1787859955 | 26.67° C | 89% | 1017.5 hPa | 0 mm | - | 132 W/m² | - |
| 1787859650 | 26.67° C | 87% | 1017.3 hPa | 0 mm | - | 151 W/m² | - |
| 1787859349 | 27.22° C | 87% | 1017.3 hPa | 0 mm | - | 176 W/m² | - |
| 1787859046 | 26.67° C | 89% | 1017.3 hPa | 0 mm | - | 175 W/m² | - |
| 1787858741 | 26.67° C | 89% | 1017.2 hPa | 0 mm | - | 155 W/m² | - |
| 1787858438 | 26.11° C | 90% | 1017.2 hPa | 0 mm | - | 130 W/m² | - |
| 1787858137 | 26.11° C | 92% | 1017.3 hPa | 0 mm | - | 105 W/m² | - |
| 1787857832 | 26.11° C | 91% | 1017.4 hPa | 0 mm | - | 83 W/m² | - |
| 1787857528 | 26.11° C | 91% | 1017.6 hPa | 0 mm | - | 76 W/m² | - |
| 1787857227 | 26.11° C | 91% | 1017.5 hPa | 0 mm | - | 87 W/m² | - |
| 1787856921 | 26.11° C | 89% | 1017.5 hPa | 0 mm | - | 84 W/m² | - |
| 1787856621 | 25.56° C | 90% | 1017.6 hPa | 0 mm | - | 81 W/m² | - |
| 1787856316 | 25.56° C | 94% | 1017.7 hPa | 0 mm | - | 76 W/m² | - |
| 1787856012 | 26.11° C | 92% | 1017.7 hPa | 0 mm | - | 79 W/m² | - |
* Rain latest hour (hover to see other rain measurements)
** Current wind speed in m/s (hover to see current wind gust speed)